This demonstration page uses our WeatherBlox Daily Observations layout. Learn more.

Left ArrowRight Arrow

Hourly Observations for May 16, 2015

Temp ( °F °C ) Dew Point ( °F °C ) Humidity (%) Winds ( mph kmh ) Pressure ( in mb ) Visibility ( mi km ) Precip ( " mm )
12:52 am 00:52 Mostly Cloudy 64 17.8 62 16.7 93 93 SE 9 15 29.81 1010 10 16 0.00 0.00
1:52 am 01:52 Partly Cloudy 64 17.8 63 17.2 96 96 SSE 10 17 29.79 1009 10 16 0.00 0.00
2:09 am 02:09 Mostly Clear 65 18.3 63 17.2 93 93 SE 10 17 29.77 1008 10 16 0.00 0.00
2:26 am 02:26 Mostly Cloudy 64 18 63 17 94 94 SSE 13 20 29.77 1008 10 16 0.00 0.00
2:52 am 02:52 Mostly Cloudy 64 17.8 63 17.2 96 96 SSE 12 19 29.78 1008 10 16 0.00 0.00
3:10 am 03:10 Mostly Cloudy 64 18 64 18 100 100 SSE 10 17 29.77 1008 10 16 0.00 0.00
3:45 am 03:45 Cloudy 66 18.9 64 17.8 93 93 SSE 12 19 29.77 1008 10 16 0.00 0.00
3:52 am 03:52 Cloudy 66 18.9 64 17.8 93 93 SSE 13 20 29.78 1008 10 16 0.00 0.00
4:11 am 04:11 Cloudy 67 19.4 65 18.3 93 93 SSE 14 22 29.77 1008 10 16 0.00 0.00
4:52 am 04:52 Cloudy 67 19.4 65 18.3 93 93 SSE 14 22 29.77 1008 10 16 0.00 0.00
4:59 am 04:59 Cloudy 67 19.4 65 18.3 93 93 SSE 13 20 29.77 1008 10 16 0.00 0.00
5:52 am 05:52 Cloudy 68 20 65 18.3 90 90 SSE 14 22 29.77 1008 10 16 0.00 0.00
6:52 am 06:52 Cloudy 68 20 65 18.3 90 90 SSE 12 19 29.79 1009 10 16 0.00 0.00
7:52 am 07:52 Cloudy 69 20.6 65 18.3 87 87 SSE 16 26 29.80 1009 10 16 0.00 0.00
8:52 am 08:52 Cloudy 70 21.1 65 18.3 84 84 SSE 20 31 29.80 1009 10 16 0.00 0.00
9:52 am 09:52 Cloudy 72 22.2 65 18.3 79 79 S 16 26 29.78 1008 10 16 0.00 0.00
10:43 am 10:43 Cloudy 73 22.8 65 18.3 76 76 S 13 20 29.77 1008 10 16 0.00 0.00
10:52 am 10:52 Cloudy 73 22.8 65 18.3 76 76 S 13 20 29.77 1008 10 16 0.00 0.00
11:15 am 11:15 Cloudy 73 22.8 65 18.3 76 76 S 16 26 29.71 1006 10 16 0.00 0.00
11:52 am 11:52 Cloudy 75 23.9 66 18.9 74 74 S 16 26 29.74 1007 10 16 0.00 0.00
12:22 pm 12:22 Mostly Cloudy 75 24 63 17 65 65 SSE 18 30 29.71 1006 10 16 0.00 0.00
12:52 pm 12:52 Mostly Cloudy 78 25.6 64 17.8 62 62 SSE 25 41 29.72 1006 10 16 0.00 0.00
1:52 pm 13:52 Mostly Cloudy 78 25.6 64 17.8 62 62 SSE 23 37 29.71 1006 10 16 0.00 0.00
2:52 pm 14:52 Mostly Cloudy 79 26.1 64 17.8 60 60 SSE 21 33 29.71 1006 10 16 0.00 0.00
3:37 pm 15:37 Mostly Cloudy with Thunderstorms 80 26.7 63 17.2 56 56 S 24 39 29.68 1005 10 16 0.00 0.00
3:52 pm 15:52 Mostly Cloudy with Thunderstorms 79 26.1 62 16.7 56 56 S 22 35 29.70 1006 10 16 0.00 0.00
4:06 pm 16:06 Mostly Cloudy 81 27 63 17 54 54 S 23 37 29.68 1005 10 16 0.00 0.00
4:52 pm 16:52 Mostly Cloudy 80 26.7 63 17.2 56 56 S 23 37 29.70 1006 10 16 0.00 0.03
5:52 pm 17:52 Mostly Cloudy with Haze 75 23.9 64 17.8 69 69 S 12 19 29.69 1006 6 10 0.03 0.76
6:52 pm 18:52 Cloudy 73 22.8 61 16.1 66 66 SW 14 22 29.70 1006 10 16 0.00 0.00
7:52 pm 19:52 Cloudy with Light Rain 69 20.6 63 17.2 81 81 SSE 12 19 29.69 1006 10 16 0.00 0.03
8:52 pm 20:52 Cloudy with Light Rain 67 19.4 62 16.7 84 84 SSE 17 28 29.72 1007 10 16 0.00 0.03
9:12 pm 21:12 Cloudy with Thunderstorms 64 18 61 16 88 88 SSE 16 26 29.71 1006 10 16 0.00 0.00
9:36 pm 21:36 Cloudy with Light Rain 64 18 61 16 88 88 SSE 14 22 29.71 1006 10 16 0.00 0.00
9:52 pm 21:52 Cloudy with Light Rain 64 17.8 61 16.1 90 90 SE 14 22 29.72 1006 10 16 0.03 0.76
10:52 pm 22:52 Cloudy with Light Rain 64 17.8 62 16.7 93 93 SSE 8 13 29.74 1007 9 14 0.02 0.51
11:52 pm 23:52 Mostly Cloudy with Light Rain 65 18.3 62 16.7 90 90 SSE 12 19 29.70 1006 10 16 0.03 0.76

Powered by AerisWeather